This is the latest recevied weather packets stored in our database for station/object NG6B-2. If no packets are shown the sender has not sent any weather packets the latest 10 day(s).
| Time | Temp. | Humidity | Pressure | Rain* | Wind** | Luminosity | Snow |
|---|---|---|---|---|---|---|---|
| 1777235278 | 23.33° C | 27% | 1004.3 hPa | 0 mm | - | - | - |
| 1777233477 | 23.89° C | 26% | 1004.6 hPa | 0 mm | - | - | - |
| 1777231676 | 24.44° C | 20% | 1004.7 hPa | 0 mm | - | - | - |
| 1777229875 | 23.33° C | 22% | 1004.9 hPa | 0 mm | - | - | - |
| 1777228074 | 23.33° C | 21% | 1005.1 hPa | 0 mm | - | - | - |
| 1777226273 | 22.78° C | 18% | 1005.2 hPa | 0 mm | - | - | - |
| 1777224472 | 23.33° C | 23% | 1005.2 hPa | 0 mm | - | - | - |
| 1777222671 | 22.78° C | 23% | 1004.9 hPa | 0 mm | - | - | - |
| 1777220870 | 22.22° C | 23% | 1004.8 hPa | 0 mm | - | - | - |
| 1777219069 | 21.67° C | 22% | 1004.3 hPa | 0 mm | - | - | - |
| 1777217268 | 20.56° C | 24% | 1004.1 hPa | 0 mm | - | - | - |
| 1777215467 | 18.89° C | 25% | 1004.2 hPa | 0 mm | - | - | - |
| 1777213666 | 17.78° C | 22% | 1004.1 hPa | 0 mm | - | - | - |
| 1777211865 | 17.78° C | 21% | 1003.9 hPa | 0 mm | - | - | - |
| 1777210064 | 17.78° C | 19% | 1003.5 hPa | 0 mm | - | - | - |
| 1777208263 | 17.78° C | 18% | 1002.8 hPa | 0 mm | - | - | - |
| 1777206462 | 17.78° C | 20% | 1002.2 hPa | 0 mm | - | - | - |
| 1777204661 | 18.33° C | 21% | 1002 hPa | 0 mm | - | - | - |
| 1777202860 | 18.33° C | 22% | 1001.7 hPa | 0 mm | - | - | - |
| 1777201059 | 18.33° C | 23% | 1001.8 hPa | 0 mm | - | - | - |
| 1777199258 | 18.89° C | 22% | 1001.9 hPa | 0 mm | - | - | - |
| 1777197457 | 18.89° C | 21% | 1002 hPa | 0 mm | - | - | - |
| 1777195656 | 19.44° C | 20% | 1002 hPa | 0 mm | - | - | - |
| 1777193855 | 19.44° C | 22% | 1002 hPa | 0 mm | - | - | - |
| 1777192054 | 19.44° C | 20% | 1002.4 hPa | 0 mm | - | - | - |
* Rain latest hour (hover to see other rain measurements)
** Current wind speed in m/s (hover to see current wind gust speed)